Theta_e
310 310 310 309 309 309 308 308 308 308 307 306 305 304 304 305 304 304 304 303 304 304 305 305 305 306 306 306 307 307 307 307 307 307 307 308 308 308 310 311 311 311 311 310 310 309 309 309 309 311 316 317 317 318 316 316 316 315 317 316 315 315 315 316 317 316 315 316 316 315 316 318 319 318 319 325 333 337 338 339 340 339 340 340 343 343 343 343
310 310 310 310 310 309 309 310 310 311 311 310 308 305 304 304 304 304 304 304 304 304 305 305 305 306 306 306 306 306 307 306 307 308 309 310 309 308 308 310 311 312 313 311 309 309 310 311 311 314 316 316 317 317 316 315 315 314 318 317 315 316 316 315 315 315 315 316 315 315 316 317 318 317 317 321 331 340 344 343 342 342 343 343 343 342 342 342
310 310 310 311 310 310 311 312 312 312 312 312 312 308 304 303 304 304 304 304 304 304 304 305 305 305 306 306 306 306 306 307 310 312 314 314 312 310 309 309 311 311 312 312 310 308 310 313 314 314 314 315 316 316 315 315 315 314 315 315 316 317 316 315 314 315 316 315 315 315 316 316 316 317 317 318 325 341 348 345 344 344 343 342 342 341 341 341
311 311 311 311 311 311 312 313 312 311 311 312 313 313 309 304 303 304 304 304 304 304 303 304 305 305 305 305 306 305 306 312 317 317 316 318 316 312 310 310 309 310 310 311 310 308 311 314 315 313 313 314 315 315 314 314 315 314 314 315 316 315 315 315 316 316 316 316 315 315 316 316 317 317 317 318 320 334 345 342 341 343 342 342 341 341 341 341
310 311 311 311 311 312 313 313 312 311 310 311 311 314 314 308 304 303 304 304 304 304 303 303 304 305 304 304 305 304 308 318 322 318 318 318 317 314 311 309 308 308 309 309 309 309 311 313 312 312 313 313 314 314 314 314 315 314 314 314 314 314 315 316 316 316 315 316 316 315 316 316 316 316 317 317 316 326 337 337 336 339 340 340 341 341 341 341
308 310 311 312 311 312 313 313 312 311 310 310 310 312 315 314 307 303 304 304 304 305 303 303 303 304 303 304 304 304 311 320 320 317 319 319 317 314 311 310 308 308 309 308 308 309 311 311 312 313 314 313 313 313 314 314 314 313 313 312 313 314 314 315 316 316 316 315 315 315 316 316 315 316 316 318 319 324 331 334 336 338 338 339 341 341 341 342
306 308 310 312 312 312 312 312 312 311 310 310 310 311 314 314 309 304 304 304 304 305 304 303 303 303 303 303 304 307 312 317 317 319 320 319 318 315 311 310 308 308 308 308 308 309 311 312 313 315 314 313 312 313 314 314 313 313 313 312 313 314 314 315 316 315 315 315 315 315 315 316 316 314 319 327 327 330 335 338 340 341 342 342 342 342 342 342
304 305 308 310 311 312 312 312 312 311 310 310 310 311 312 313 310 306 305 305 305 304 304 304 303 303 303 304 307 311 313 315 318 320 319 318 317 314 311 310 308 308 308 308 310 311 313 313 315 315 313 313 313 313 313 313 312 313 313 312 314 314 315 316 315 314 315 315 314 316 315 314 316 313 325 339 337 336 340 341 342 343 343 342 342 342 342 342
303 304 305 307 310 311 312 312 312 311 310 310 310 311 311 313 312 310 307 305 305 304 304 304 303 303 304 305 310 315 316 317 318 318 318 317 315 312 310 310 308 308 308 309 312 314 314 315 316 315 313 312 313 312 312 312 312 313 312 312 313 313 315 315 315 315 314 316 314 315 314 314 317 313 327 343 343 341 342 342 343 343 343 343 342 342 342 342
303 303 303 304 306 309 311 312 311 311 311 310 310 311 311 312 313 313 310 306 304 304 304 304 304 304 304 306 311 318 319 317 316 316 316 314 313 311 309 309 309 308 309 311 314 315 315 315 315 316 314 312 312 312 311 312 312 314 313 312 313 313 314 314 315 315 314 316 314 315 315 316 316 314 329 343 345 343 345 344 343 344 343 343 342 343 343 342
302 303 303 303 304 306 309 310 311 311 311 310 310 311 311 312 313 313 312 309 306 304 304 304 304 304 305 306 311 318 319 316 316 315 314 313 311 309 308 309 308 309 311 314 315 315 315 315 315 316 315 313 313 313 312 313 314 314 313 313 313 313 313 314 315 314 315 315 315 315 314 315 314 315 332 344 345 344 345 345 345 344 344 344 342 343 342 342
302 303 303 303 303 304 306 308 310 310 311 310 310 310 311 312 312 313 313 312 309 307 304 304 304 304 305 307 310 315 316 316 316 314 314 313 309 308 308 308 308 309 312 314 315 315 315 314 315 315 314 313 313 313 313 314 314 314 314 313 313 314 314 315 314 314 316 314 316 315 313 317 314 316 334 344 344 345 345 345 345 345 345 344 343 343 342 341
302 302 303 303 303 303 304 306 308 310 311 310 310 309 310 312 312 312 313 313 312 310 308 305 304 304 307 309 312 315 316 316 316 314 314 313 309 309 310 309 309 311 312 314 314 314 314 314 314 314 314 313 313 313 314 314 314 315 314 313 314 314 315 314 314 314 315 314 316 315 314 318 315 319 335 345 344 345 345 345 344 344 345 344 344 343 342 339
302 302 302 303 304 304 303 304 305 308 309 310 310 309 310 311 312 312 312 313 312 312 311 307 307 307 310 312 312 316 316 316 317 314 313 313 311 313 313 313 313 314 314 314 314 314 314 315 314 313 312 313 313 313 314 313 314 314 314 316 314 313 315 314 313 315 315 315 316 314 314 314 316 324 338 342 343 344 343 344 344 343 344 344 344 343 341 340
302 302 303 303 304 304 304 303 304 306 307 309 309 309 309 309 310 312 312 313 312 313 311 309 311 313 314 315 312 316 317 315 317 315 313 313 312 313 314 314 314 315 315 314 314 314 314 314 313 313 313 313 313 313 314 314 315 315 314 318 318 313 313 314 313 315 314 314 315 314 315 313 317 330 339 338 340 341 340 342 342 342 343 343 344 343 342 341
302 302 302 303 304 304 304 303 304 304 305 307 308 309 309 308 310 311 312 312 312 313 311 310 314 316 316 317 314 316 317 316 316 314 314 313 312 313 313 313 314 313 314 314 314 314 314 313 312 313 313 313 314 314 315 316 318 319 315 315 318 315 313 314 313 313 313 314 314 313 316 316 317 329 337 336 337 338 338 339 339 340 341 343 344 342 341 339
303 302 302 303 304 304 304 304 304 304 304 305 306 307 308 308 310 311 312 312 313 314 312 311 313 315 317 316 315 316 317 317 317 314 313 312 312 314 314 314 313 312 313 314 313 313 313 313 312 315 316 316 317 316 316 316 318 323 321 317 318 317 313 314 314 313 313 313 314 313 316 318 318 326 334 333 332 334 336 337 337 338 338 341 343 341 340 338
304 303 302 302 304 304 304 304 304 305 305 305 306 307 309 310 313 315 315 315 314 312 312 312 312 316 318 314 315 317 316 317 316 314 313 313 313 313 313 314 313 312 313 312 313 312 312 312 314 317 320 320 318 317 317 317 319 322 323 320 321 320 315 314 315 315 313 313 315 314 314 318 321 325 330 330 331 332 334 335 335 336 336 337 339 338 338 338
304 304 303 303 303 304 305 305 305 306 307 307 309 311 312 314 317 321 320 318 315 312 312 312 312 317 318 314 314 316 316 316 314 313 313 313 313 312 312 312 312 312 311 313 314 312 312 313 313 316 318 318 318 317 316 316 316 316 319 320 320 318 316 315 315 314 314 313 314 316 314 317 321 323 324 326 330 330 330 333 334 335 335 334 334 335 335 335
305 304 304 303 303 304 305 305 307 309 310 311 312 313 313 315 320 322 319 317 316 314 314 313 313 314 314 314 314 315 317 316 314 314 314 313 313 312 313 312 312 312 312 314 316 313 312 314 316 317 318 320 322 320 319 317 318 318 318 319 317 316 315 316 316 316 317 317 315 318 319 319 321 321 321 324 328 330 328 330 332 334 334 334 333 333 334 333
305 304 304 304 303 304 306 307 309 312 312 312 312 312 312 314 318 319 317 316 316 316 316 315 315 314 315 316 315 315 316 316 315 314 314 313 312 312 313 313 312 313 314 313 316 315 313 314 317 319 321 323 324 324 324 321 322 323 320 317 316 317 317 317 319 318 324 327 319 320 322 321 323 322 323 327 328 329 329 328 331 333 333 334 333 333 333 332
304 304 305 305 304 304 306 309 311 312 312 312 311 311 313 314 315 316 315 316 317 316 316 315 316 316 316 316 316 316 316 316 315 314 314 313 312 313 313 313 313 315 316 314 314 315 315 317 318 319 319 319 322 324 326 325 323 322 318 317 317 317 317 321 325 323 325 329 319 319 323 323 328 324 322 328 329 328 329 329 331 332 332 332 332 333 332 331
303 304 305 305 305 304 304 307 310 311 311 311 311 311 314 315 315 315 315 317 317 316 316 315 316 315 315 315 316 317 316 316 315 314 315 313 313 313 312 313 313 314 315 315 316 315 316 319 318 317 316 318 322 324 330 332 326 323 318 315 317 317 316 318 325 328 328 326 319 322 326 326 329 326 322 324 326 328 328 330 331 331 332 332 332 333 330 329
303 303 304 305 305 305 304 305 308 310 310 312 312 312 315 316 316 317 316 316 317 316 315 315 315 315 315 315 315 317 316 316 315 315 314 313 313 312 312 312 312 312 313 315 317 315 316 317 316 318 318 321 321 320 332 333 325 333 327 316 317 318 316 317 324 333 337 333 331 330 329 332 333 326 324 323 322 327 328 328 330 331 332 331 332 331 329 329
303 303 303 304 305 305 305 304 306 309 311 314 314 313 316 317 317 317 316 319 322 320 317 317 317 316 314 315 316 316 316 316 316 315 314 314 313 313 313 312 312 313 312 312 314 314 314 314 314 320 322 322 320 319 332 331 321 330 334 327 322 319 319 321 325 332 333 331 332 326 323 335 340 328 325 323 322 326 327 327 329 328 330 331 332 331 328 330
303 303 303 303 304 305 305 305 306 307 311 315 314 312 314 316 316 316 319 324 326 324 320 318 318 316 315 317 317 316 316 316 316 316 315 314 314 313 313 313 313 313 313 314 315 316 316 315 316 324 324 322 322 319 325 331 322 320 331 335 328 323 324 323 324 325 324 324 327 325 322 331 336 329 328 324 322 326 325 327 328 327 329 330 331 332 329 331
303 303 303 303 303 305 305 306 305 305 309 312 310 310 314 316 314 315 320 324 326 325 320 316 316 316 316 317 317 317 317 318 316 316 316 315 315 314 313 315 314 312 314 315 317 320 320 318 318 323 324 321 321 320 322 328 322 319 334 334 323 325 326 325 325 320 321 323 326 331 326 323 327 327 327 323 319 322 322 323 324 324 327 329 330 332 330 331
302 302 303 303 303 304 305 306 305 306 311 311 309 311 314 315 312 316 323 323 323 321 316 314 316 315 314 316 316 316 318 317 315 316 316 315 315 313 314 314 313 315 316 314 316 322 322 319 319 321 321 318 321 325 325 323 319 325 335 326 318 323 325 327 326 321 325 321 322 335 330 319 329 334 328 324 319 320 322 323 322 322 325 327 329 332 332 331
302 302 303 303 303 303 304 305 307 312 317 315 311 313 313 311 312 320 324 322 320 319 315 314 316 314 313 315 315 315 316 315 316 316 316 315 314 314 313 313 313 314 314 314 319 323 320 318 320 322 321 321 325 327 325 321 320 325 327 321 320 323 324 327 324 325 334 324 322 337 328 316 329 339 332 324 320 323 324 322 321 322 324 327 328 330 331 330
302 302 302 303 303 303 303 306 310 316 319 316 314 314 311 313 321 324 321 319 319 319 315 313 315 314 314 314 314 315 315 316 315 315 314 315 314 314 313 313 313 315 319 321 321 319 316 314 317 319 319 321 325 321 318 317 318 321 322 321 324 326 329 334 332 330 329 324 328 336 327 317 325 335 335 325 321 327 328 321 319 321 324 327 328 329 330 330
302 302 302 303 303 303 303 306 314 319 318 317 317 313 310 318 327 326 323 320 321 322 315 313 314 314 316 315 315 316 315 316 316 314 315 315 314 313 314 315 315 318 327 328 320 318 320 316 315 318 316 316 317 315 314 314 315 319 321 323 325 328 331 337 338 330 320 325 334 331 323 320 322 331 334 326 322 327 326 322 321 323 324 327 328 329 329 329
302 302 302 302 302 303 303 305 313 315 314 318 317 313 317 322 323 324 326 321 323 326 317 314 316 314 315 315 315 316 315 316 316 314 315 315 316 315 313 318 320 318 322 325 321 322 327 323 316 315 315 314 314 315 314 314 318 319 320 323 323 321 324 330 332 327 324 328 330 325 321 321 326 331 328 323 322 321 319 318 319 321 322 325 327 328 329 328
302 302 302 302 302 304 303 304 306 307 311 317 316 316 322 324 323 325 325 319 320 323 317 316 317 314 315 315 315 316 315 316 316 314 316 315 317 316 313 318 321 318 321 323 320 321 327 327 320 315 316 315 315 317 315 316 318 316 317 321 322 320 321 325 325 324 326 326 323 322 322 322 326 327 324 323 320 317 316 317 319 321 322 324 326 327 328 328
302 302 302 302 302 303 303 304 303 305 312 316 318 322 321 321 324 325 323 320 318 317 316 317 317 315 316 315 315 316 315 316 316 314 315 315 316 318 315 315 316 317 320 320 318 320 322 325 325 319 317 315 315 317 317 318 318 316 317 317 319 324 325 323 324 325 325 324 324 322 322 325 326 325 326 322 317 317 319 321 323 324 324 325 325 326 327 328
302 302 302 302 303 303 303 304 303 306 313 317 321 325 321 321 325 322 321 322 317 315 316 315 316 316 317 316 315 316 315 316 316 315 316 316 317 320 319 316 314 317 318 317 320 319 315 320 325 318 314 315 313 314 315 317 317 317 317 315 315 323 328 324 324 329 328 323 324 323 323 330 330 329 329 321 316 319 321 323 325 325 325 325 325 326 326 327
302 302 302 302 302 303 303 303 303 307 314 319 321 323 323 324 324 319 318 318 314 314 314 313 315 316 317 318 316 315 315 316 315 316 318 316 316 318 318 316 315 314 317 322 324 319 314 319 322 315 313 314 313 313 313 312 317 319 315 315 316 317 324 325 321 325 326 321 323 322 321 326 327 328 327 321 319 319 320 323 325 325 326 325 325 325 324 325
302 302 303 303 303 303 303 304 305 309 315 320 322 323 324 322 318 316 316 314 314 314 313 314 318 318 316 318 318 315 315 316 314 317 321 321 320 319 315 314 316 313 315 319 319 319 320 321 321 315 312 314 311 312 315 311 316 319 314 316 318 313 321 330 324 320 319 320 326 323 319 321 322 325 325 321 319 318 319 323 323 324 326 325 326 326 324 324
301 302 302 303 303 303 304 307 308 312 318 322 324 325 323 318 315 315 314 313 314 313 311 313 317 318 316 317 319 316 314 316 315 315 319 319 321 322 316 313 316 313 312 315 315 320 322 319 319 318 313 314 314 313 317 316 314 315 313 315 317 316 320 324 322 320 318 318 323 324 322 321 319 322 323 319 319 320 321 323 323 323 324 324 325 325 325 325
302 302 303 307 305 302 308 311 309 312 320 323 323 323 320 316 315 314 313 312 312 312 313 314 313 315 317 317 318 316 313 315 315 314 316 317 319 322 317 315 316 312 311 314 317 321 322 318 321 321 313 313 319 318 317 316 314 315 316 316 317 321 321 318 318 321 321 319 321 321 321 321 324 325 322 318 320 322 323 325 324 322 322 324 325 325 325 325
304 303 304 310 310 306 312 314 311 315 322 324 322 320 317 315 315 314 313 313 312 312 314 315 312 313 316 314 315 315 313 314 315 315 319 320 320 318 316 315 315 313 312 313 317 323 322 317 320 324 318 314 318 315 312 313 312 314 318 317 317 319 319 317 318 319 321 323 325 323 319 324 333 331 322 319 320 321 324 326 324 322 322 324 325 325 326 325
306 307 308 312 313 309 311 315 315 318 321 321 320 317 315 315 315 313 313 312 311 311 312 313 313 314 314 313 314 315 313 314 315 315 318 321 318 315 315 314 312 313 317 318 319 321 321 319 321 323 320 317 316 313 310 312 310 311 315 317 319 322 321 318 318 320 323 323 325 327 322 325 334 329 321 321 321 321 322 324 323 321 322 324 325 325 325 324
308 312 313 313 313 308 311 317 317 316 318 319 319 316 315 315 313 312 312 311 311 310 311 313 313 313 313 313 313 314 313 315 315 315 319 321 318 315 315 313 311 312 318 319 316 316 323 328 324 319 317 314 312 311 311 311 311 314 315 315 318 322 326 325 322 324 324 318 320 328 325 326 332 327 321 322 321 320 321 321 321 321 322 324 324 324 323 322
309 311 311 312 314 310 312 317 315 313 316 316 315 314 313 313 312 312 312 311 311 312 313 313 312 312 313 312 312 312 313 315 315 315 317 318 316 315 314 314 313 313 317 321 317 316 322 324 319 318 323 321 315 313 313 312 314 317 317 317 315 315 322 328 327 328 324 314 318 324 319 323 331 324 317 318 318 319 321 321 321 320 321 323 322 322 322 321
310 311 310 311 314 313 315 318 317 318 319 315 312 312 312 312 312 311 311 311 311 312 313 312 311 311 311 311 312 312 312 314 314 313 315 315 314 315 315 314 314 315 318 320 318 317 319 320 320 322 325 324 321 320 318 314 313 316 315 315 314 313 319 323 322 327 323 314 321 327 320 324 330 320 316 318 319 319 318 319 320 320 321 322 322 322 322 321
311 312 310 310 313 314 315 315 316 319 321 316 313 314 313 311 311 311 311 311 310 311 311 311 310 310 310 312 313 312 310 313 314 314 315 314 312 312 313 313 313 315 316 315 315 318 319 322 331 330 321 319 322 322 317 311 312 315 314 313 314 314 316 318 320 326 322 315 322 328 324 326 327 319 316 320 321 320 318 318 319 319 320 321 321 322 321 321
310 311 310 309 311 311 311 311 310 313 315 312 312 314 314 312 312 311 311 311 310 310 310 310 310 312 313 314 314 313 312 313 315 315 314 314 313 311 312 314 314 314 315 311 311 319 322 321 330 334 326 322 323 320 314 310 311 313 311 311 315 316 317 319 321 323 322 320 324 325 323 322 319 316 316 318 321 323 320 318 318 318 319 319 319 319 319 319
309 310 309 308 309 310 310 310 309 309 311 311 312 313 313 312 312 312 311 310 310 310 310 309 309 311 313 314 314 314 313 313 314 315 314 313 314 312 310 312 313 313 314 310 308 319 325 318 317 323 322 316 315 313 309 309 309 309 310 311 314 318 320 318 315 314 316 320 322 319 320 319 314 313 315 315 317 320 318 316 317 317 318 317 317 317 316 317
307 307 306 306 309 310 310 311 310 309 309 312 312 310 311 312 311 310 310 310 309 310 312 310 307 307 308 310 312 311 312 314 314 314 313 312 315 317 314 311 311 310 311 311 311 318 325 319 312 313 313 311 311 310 309 309 308 308 311 312 313 317 318 315 312 312 314 316 316 314 315 315 312 312 313 312 312 313 313 314 316 316 316 316 315 315 315 316
303 304 304 306 308 309 309 309 310 309 308 311 312 309 308 310 310 308 308 311 311 309 310 310 307 306 305 307 309 309 310 313 313 311 310 310 313 317 316 313 312 309 310 313 313 314 320 318 313 314 314 312 312 310 309 309 310 310 311 311 313 315 316 315 313 313 314 314 314 313 313 312 309 309 312 311 309 309 310 312 315 315 315 315 315 315 315 314
301 303 304 305 306 308 307 306 307 307 306 308 310 309 307 308 309 307 306 309 310 308 309 309 306 305 304 304 306 307 307 308 309 309 308 309 311 313 312 312 311 309 311 315 314 313 315 315 315 321 321 315 312 311 309 309 311 312 312 312 315 315 315 316 315 315 316 312 310 313 314 312 309 307 308 309 307 308 309 309 310 311 313 315 314 314 315 315
302 303 304 305 306 306 305 304 305 306 305 306 307 307 306 306 307 308 307 307 308 308 308 308 306 304 304 304 305 305 305 305 306 306 306 307 308 309 309 309 309 309 311 314 315 317 318 315 315 323 322 315 312 311 311 312 314 316 315 313 316 315 312 312 312 313 315 312 312 316 315 311 308 306 306 306 306 307 307 307 308 309 311 312 312 313 314 315
302 304 304 305 305 303 302 303 303 304 305 305 305 305 306 305 306 308 310 308 306 306 306 306 306 305 305 305 305 305 303 303 305 305 305 306 306 306 307 307 306 307 309 312 314 317 321 320 316 320 320 315 312 313 316 317 316 317 315 311 313 313 311 310 309 308 310 312 315 317 312 307 307 306 306 306 305 305 305 306 307 309 310 310 310 311 312 313
Wind_Speed
8 8 8 7 7 6 6 6 6 6 6 7 7 7 7 7 7 7 7 8 8 8 7 7 6 6 6 7 8 8 9 10 11 14 14 9 5 11 12 12 12 10 8 9 8 6 7 9 9 11 9 4 4 6 5 6 8 5 2 3 4 5 5 4 2 1 3 6 9 17 12 2 2 3 7 12 16 15 14 13 12 9 13 20 24 36 37 33
7 7 7 7 7 6 6 6 6 7 7 8 8 8 7 7 7 6 7 8 8 8 7 7 6 6 7 7 8 9 10 10 12 14 9 4 4 9 11 12 12 11 8 9 9 7 8 10 9 9 7 5 5 6 5 5 6 6 3 2 5 5 5 5 3 3 5 7 9 11 11 6 3 3 4 5 8 14 14 10 17 21 20 24 32 38 35 34
7 6 7 7 6 5 5 5 6 7 8 9 9 9 8 6 6 7 7 8 8 8 7 7 6 6 7 7 8 9 9 11 12 8 1 4 3 2 6 9 10 10 8 8 9 9 10 10 7 3 6 7 8 9 8 5 5 7 5 3 5 5 6 10 8 8 10 11 9 7 10 9 7 9 5 4 6 8 9 9 14 22 27 32 37 37 35 36
6 6 6 6 6 5 4 5 6 7 8 9 10 10 9 7 6 6 7 8 8 8 7 7 6 6 7 8 8 8 9 9 6 3 3 5 6 4 2 6 7 7 6 7 8 10 11 10 6 4 6 9 12 11 8 7 6 5 7 5 6 6 6 13 15 14 16 15 11 6 6 7 9 11 5 5 6 1 7 16 17 24 34 37 38 37 36 35
7 6 6 6 5 5 4 5 6 7 8 9 10 10 9 8 7 6 7 8 8 8 7 6 6 7 7 7 8 7 6 4 1 4 1 3 5 5 0 4 5 5 5 7 9 11 12 11 7 6 6 7 10 7 6 13 12 4 5 8 11 10 6 14 19 17 17 16 13 7 2 4 8 10 8 3 2 4 9 17 22 29 34 36 38 37 35 35
8 6 6 6 5 5 5 5 6 6 7 9 10 10 10 8 8 7 7 8 9 8 7 6 6 6 6 7 8 7 3 0 1 1 2 3 5 5 1 4 5 6 7 9 10 12 13 11 7 6 5 5 6 6 8 15 13 5 7 10 16 17 9 15 20 17 15 11 10 6 2 3 6 9 9 6 3 7 12 18 25 29 32 36 38 36 34 34
8 8 7 6 6 5 5 5 6 6 7 8 9 10 10 9 8 7 7 8 8 7 6 6 6 5 5 6 7 6 7 5 4 3 2 3 6 6 3 4 6 8 10 11 12 13 13 10 8 7 4 4 5 7 12 13 10 7 7 8 17 20 16 23 25 17 15 12 10 8 5 3 1 4 5 2 2 9 15 21 29 31 33 35 35 34 33 33
9 9 8 7 7 6 6 6 6 6 7 7 8 9 10 9 9 8 8 8 8 7 6 7 5 4 4 5 6 7 10 7 4 4 3 4 7 7 5 6 8 10 11 13 14 14 11 9 10 8 3 6 6 6 10 8 5 6 8 11 15 18 20 27 25 16 15 15 15 13 7 6 6 3 1 5 11 16 21 25 30 32 32 33 33 31 31 33
9 9 9 8 8 7 7 6 6 6 6 7 8 9 10 10 9 9 9 9 8 7 7 7 5 4 3 4 5 6 7 5 4 4 3 7 11 8 6 7 10 11 12 15 17 14 10 8 9 7 4 8 8 7 8 4 4 6 10 14 12 16 22 25 21 16 14 15 14 10 6 7 8 2 2 9 21 25 26 29 31 33 33 32 33 31 30 32
9 9 9 9 9 8 8 7 7 6 6 6 7 8 9 10 9 9 10 10 8 8 7 6 6 4 4 5 3 2 4 5 6 5 5 10 11 7 7 9 11 11 14 17 17 13 9 6 5 6 8 10 6 8 8 5 6 9 12 13 13 17 21 18 16 15 12 12 11 8 6 9 8 1 2 9 25 31 30 30 30 32 32 32 34 32 31 31
9 9 9 9 9 9 9 8 7 7 6 6 6 7 8 9 9 9 9 9 9 8 7 7 6 5 5 6 5 3 4 5 5 6 7 11 8 5 7 9 11 12 17 18 15 11 8 6 7 9 8 6 4 8 8 5 9 15 14 11 11 11 11 10 8 11 8 6 8 6 6 7 4 3 10 15 25 34 33 30 30 31 32 33 34 33 31 31
10 9 9 9 9 9 9 8 8 8 7 7 7 7 8 8 9 9 9 9 9 8 8 7 6 6 6 9 11 5 4 5 5 6 5 9 3 5 7 9 11 14 18 16 11 7 8 10 12 13 11 5 5 6 8 13 16 17 11 5 8 6 5 9 7 9 6 2 6 4 4 5 3 4 20 25 26 33 33 30 30 31 31 32 34 33 30 28
11 9 9 9 9 9 9 9 9 8 8 8 7 8 8 9 9 10 9 9 9 8 9 8 6 7 7 10 10 4 3 6 7 7 3 6 2 9 7 9 10 12 13 9 8 8 10 13 15 16 16 7 3 4 11 18 15 12 8 1 4 7 5 9 7 11 7 4 7 0 2 7 5 6 26 30 28 32 30 29 29 30 31 32 33 32 29 25
12 10 9 9 8 8 8 9 9 9 9 9 8 9 9 10 10 11 11 10 9 8 8 8 7 7 7 10 8 5 6 6 7 10 4 3 5 10 7 7 6 7 7 8 11 12 12 14 16 12 10 7 5 7 11 11 6 4 4 3 3 2 6 7 5 7 6 7 9 5 3 9 2 11 28 31 32 34 27 26 29 29 31 32 32 30 28 26
13 11 10 9 9 8 8 8 9 9 10 10 9 10 11 11 11 12 12 11 9 8 8 7 6 7 10 11 8 7 8 9 10 11 7 5 6 10 7 6 3 5 7 10 11 11 11 12 11 5 4 6 6 6 5 5 4 2 2 4 3 2 6 8 4 6 7 7 7 9 5 7 2 15 29 31 32 33 28 26 27 28 30 31 30 29 27 26
15 12 10 9 9 9 8 8 8 8 9 10 10 12 12 13 13 13 14 12 10 9 7 5 5 6 8 8 7 8 11 13 11 9 8 9 8 9 7 5 2 3 7 10 10 10 10 10 7 3 4 5 2 3 4 5 4 4 1 3 4 3 4 7 6 8 12 6 5 10 6 3 2 17 30 31 31 31 28 26 27 29 30 31 30 28 27 26
18 14 11 10 10 9 9 8 7 7 7 8 10 12 13 13 14 15 15 12 10 8 7 6 6 7 8 8 6 8 12 13 11 11 10 8 9 8 6 7 5 5 7 8 8 9 9 7 3 2 3 1 2 4 4 4 3 4 2 1 4 5 3 5 8 7 10 9 7 8 7 4 2 14 25 28 30 30 28 27 27 28 29 31 31 30 30 30
19 16 13 10 10 10 9 8 7 6 6 7 8 9 11 13 14 16 15 12 9 5 5 6 4 4 7 9 7 7 8 10 10 12 10 6 8 7 8 11 6 4 7 6 6 7 7 5 0 0 3 3 3 5 2 3 4 3 2 1 4 4 4 6 10 7 7 10 9 7 8 7 1 11 19 26 31 28 26 27 27 28 30 31 31 32 32 31
18 18 15 12 10 10 9 7 5 4 5 5 7 9 11 12 12 10 9 9 7 3 4 6 7 2 4 8 8 8 6 7 8 12 11 7 9 7 8 11 10 7 5 2 4 6 5 2 2 1 3 3 2 5 6 8 7 6 5 4 4 4 5 7 10 6 9 8 7 8 7 5 2 8 12 20 27 23 21 24 24 27 30 31 31 32 33 33
17 17 16 13 10 10 9 6 4 3 4 5 7 9 9 7 5 3 4 10 12 10 12 13 14 15 17 17 14 11 7 8 12 13 11 8 10 10 9 12 12 8 4 3 3 4 4 2 2 4 6 7 8 8 8 8 8 6 2 2 3 2 5 7 8 5 6 7 1 4 6 2 2 4 5 10 16 17 17 19 21 24 28 32 33 33 34 33
16 16 16 15 11 9 8 6 4 3 5 6 7 9 9 6 3 4 8 13 17 16 18 20 20 23 25 23 16 13 11 10 16 14 9 10 11 9 9 9 7 5 4 5 3 1 3 3 6 9 10 10 9 7 7 6 5 1 3 1 4 2 4 7 5 6 4 7 1 1 7 5 4 3 9 11 10 12 18 19 20 25 27 30 33 33 33 32
16 15 15 15 12 9 7 6 6 6 7 7 8 10 8 6 5 8 10 12 19 20 19 20 21 25 27 24 17 15 16 10 15 16 12 12 13 9 6 6 5 4 3 3 2 2 1 4 11 13 10 6 6 4 4 4 1 2 2 1 4 2 4 6 5 7 5 6 1 1 5 5 7 2 8 15 13 15 25 29 28 29 26 26 31 32 33 32
16 15 14 14 13 10 7 7 7 7 9 8 8 8 7 9 9 10 10 10 17 23 20 19 21 24 26 23 16 14 14 10 12 17 17 15 15 13 7 5 4 4 2 2 4 3 2 6 12 12 7 4 4 5 1 3 2 2 1 2 2 3 1 4 6 8 6 3 2 2 2 2 5 4 1 14 20 19 24 28 31 33 32 31 32 34 35 35
16 15 14 13 13 12 8 7 8 8 10 8 6 9 11 12 9 6 8 7 9 16 16 15 17 20 24 21 13 12 15 15 14 17 20 18 16 14 9 6 3 3 4 4 6 5 6 10 9 5 6 8 5 5 2 4 3 3 3 3 3 2 2 4 5 5 6 6 3 5 5 5 2 4 4 4 12 15 18 20 23 29 31 32 33 34 36 38
17 15 14 13 12 12 10 8 8 9 11 7 6 12 12 9 5 3 6 4 4 9 10 7 10 17 24 19 13 15 14 15 19 18 21 22 19 12 7 7 5 4 7 5 4 4 9 14 10 4 5 9 7 5 4 5 0 5 4 6 6 4 4 5 5 4 6 6 3 5 3 5 5 3 4 3 4 10 13 15 19 23 23 25 30 31 32 35
18 16 15 13 12 12 10 7 5 8 10 4 8 11 8 8 6 4 3 2 3 5 4 3 7 12 17 14 15 15 7 12 23 21 21 23 22 15 6 5 6 4 6 4 2 2 6 12 9 4 5 7 7 4 4 6 5 2 5 7 6 5 4 1 3 3 3 1 3 4 4 4 6 5 6 2 6 9 9 9 14 20 22 24 29 29 30 33
19 17 16 14 12 12 11 7 6 9 10 7 9 9 6 7 8 6 3 3 3 3 2 4 6 6 9 11 15 12 1 6 16 21 24 23 23 20 8 4 4 3 3 1 1 2 4 5 5 5 4 5 5 3 5 6 7 3 6 4 5 5 5 4 5 3 2 3 4 5 5 2 4 5 6 0 6 7 7 8 8 15 22 24 26 29 32 34
19 18 17 14 13 12 11 10 8 6 6 8 7 6 5 7 6 5 2 3 3 2 2 4 5 3 6 10 17 17 9 5 5 13 27 25 22 18 9 6 5 3 3 3 2 6 3 3 7 6 4 3 3 6 6 6 4 6 5 2 3 6 6 5 6 3 2 1 4 6 3 2 4 6 5 2 4 5 9 10 8 14 23 25 28 34 35 36
18 19 19 16 14 12 12 11 7 2 3 3 3 4 6 5 3 2 4 1 3 1 1 5 5 4 7 8 14 19 15 7 2 7 22 25 23 17 9 10 7 3 3 4 4 6 4 7 9 7 5 3 6 7 6 7 3 6 3 1 2 2 3 4 6 3 3 4 2 6 2 1 4 5 5 4 2 4 7 7 7 16 28 30 32 34 33 33
18 18 19 19 15 13 14 11 4 1 2 2 1 3 4 2 2 3 1 2 2 1 0 4 4 4 7 4 6 12 10 5 3 4 13 21 23 15 8 9 6 2 2 1 2 5 7 9 7 5 4 6 6 5 5 7 6 2 3 4 5 6 4 3 3 4 4 2 5 7 1 4 1 5 4 2 2 5 4 2 2 11 23 28 29 30 29 31
19 17 18 20 17 15 15 9 4 1 3 4 3 2 3 2 4 4 3 3 2 2 1 1 3 2 6 5 3 7 6 4 4 6 6 10 13 9 3 3 2 2 3 4 2 5 6 4 4 3 5 6 4 1 2 2 2 4 4 4 3 4 5 5 4 4 3 2 6 6 1 7 2 4 5 4 6 5 4 6 3 6 13 19 23 26 28 31
19 17 17 19 19 18 16 9 5 4 5 5 4 2 3 3 2 2 3 3 3 2 0 1 3 1 3 5 5 6 5 4 4 8 5 3 5 6 4 4 3 2 3 3 2 5 5 3 4 3 4 5 5 2 4 5 4 5 3 5 4 2 4 3 3 2 1 4 5 3 4 4 3 5 5 6 8 7 1 10 11 11 15 18 21 24 25 29
19 18 16 18 20 20 17 11 8 8 6 4 1 2 4 4 1 4 3 3 2 2 3 4 4 2 2 2 3 5 5 5 4 6 7 4 4 5 5 5 6 5 1 4 1 3 3 5 5 3 2 3 6 3 2 3 2 3 3 3 4 2 3 1 3 1 1 3 4 1 5 1 4 2 4 6 7 7 6 13 17 20 23 22 22 22 22 23
20 18 18 18 20 21 16 12 11 8 5 4 2 4 4 2 4 4 3 4 4 4 4 4 6 6 2 2 5 6 5 4 5 7 6 4 3 3 4 4 5 6 3 2 1 1 1 4 3 2 3 2 5 5 6 5 2 3 4 5 4 4 4 3 3 2 2 2 3 3 3 1 2 2 6 5 10 15 16 19 21 23 27 27 24 22 21 19
20 18 18 19 20 20 15 12 11 9 7 6 4 4 3 3 4 2 3 4 2 4 4 4 6 5 4 5 6 7 6 3 4 5 5 4 4 5 4 4 5 4 4 3 2 2 3 3 6 4 3 5 5 4 5 6 2 3 2 5 2 5 5 2 3 5 4 1 2 2 0 3 3 4 6 3 12 17 19 21 23 21 23 27 26 22 22 21
21 18 18 19 20 17 14 13 12 12 11 7 5 1 4 4 3 2 2 3 1 3 7 9 5 3 2 4 6 4 4 3 3 2 1 1 2 4 4 4 6 7 6 4 2 1 2 4 6 4 1 4 4 4 6 5 2 1 2 2 4 4 7 4 1 1 4 3 2 1 1 3 2 2 5 5 6 10 12 16 20 21 22 25 25 22 21 20
20 18 18 19 18 13 12 12 13 15 12 7 4 4 5 3 4 4 3 3 4 5 5 5 4 2 2 1 4 4 1 2 3 3 2 3 1 3 3 4 5 8 10 6 2 2 4 2 6 3 2 5 6 1 3 4 5 4 1 3 2 3 4 4 2 2 4 2 3 2 2 1 2 1 5 8 5 5 4 7 15 21 23 24 23 23 23 21
20 20 18 15 12 12 13 12 15 18 11 5 2 4 3 3 4 4 5 7 7 6 3 2 4 3 2 1 2 3 2 3 3 5 3 2 2 3 3 4 4 3 9 8 3 1 4 0 7 3 2 6 8 5 3 4 3 4 3 2 3 3 1 1 2 1 1 2 3 3 0 1 1 3 5 5 4 5 5 5 7 10 16 23 25 26 26 25
19 17 12 6 2 11 15 13 18 19 9 3 2 3 2 4 6 9 11 10 5 3 3 3 4 2 1 3 3 2 3 5 4 3 2 1 2 2 2 3 3 2 5 9 4 1 3 3 4 5 2 3 5 5 3 5 6 3 2 3 2 3 3 2 2 3 3 3 2 2 2 1 3 3 4 3 5 8 7 5 5 4 8 17 24 25 25 23
14 10 5 8 4 11 17 14 17 14 5 2 4 3 3 4 7 12 15 11 5 4 4 4 2 1 1 2 3 2 3 4 4 2 1 1 1 1 3 4 3 2 4 9 5 1 3 3 2 5 5 3 2 2 2 2 4 5 4 2 2 1 1 2 1 1 3 4 2 1 1 3 5 3 3 4 4 6 9 8 5 6 8 12 19 23 22 21
10 5 3 11 7 13 18 14 10 6 2 3 3 2 4 5 6 13 19 16 10 8 8 5 2 3 3 1 1 3 2 4 3 3 2 1 0 1 2 6 5 4 3 7 4 2 2 2 3 2 4 2 2 3 2 2 1 1 1 2 2 3 3 3 0 2 2 4 3 4 2 5 5 3 4 5 5 4 10 12 7 10 15 15 17 20 19 18
9 3 2 16 9 16 20 9 2 1 2 3 4 4 6 7 6 10 16 17 11 9 8 4 2 3 3 2 2 2 1 2 3 3 4 2 1 2 4 10 9 4 5 3 2 0 3 3 3 0 2 2 5 4 2 4 2 3 2 2 2 3 4 5 2 3 1 2 1 4 2 4 5 3 5 4 6 9 15 17 13 13 18 19 18 17 16 16
11 6 4 14 6 18 17 5 2 2 3 4 6 8 9 8 6 8 10 11 8 5 2 1 2 2 1 2 2 2 3 1 1 3 5 5 3 7 8 8 6 5 5 1 2 2 2 4 3 2 4 4 4 2 4 7 7 4 3 5 4 2 1 4 5 3 2 1 1 3 2 4 5 4 1 3 8 10 14 17 17 17 18 19 19 16 15 15
13 9 7 12 4 11 7 2 3 3 4 4 3 6 10 9 8 8 6 5 6 3 1 2 4 4 2 3 3 4 5 2 2 4 3 4 5 13 19 11 1 2 2 2 2 1 1 1 3 3 4 6 6 5 6 6 5 2 2 4 4 5 6 3 1 3 3 2 3 5 2 5 5 3 4 8 10 11 10 12 17 19 20 19 18 15 14 14
11 7 9 12 6 5 2 1 3 2 2 3 2 4 6 7 8 7 2 4 8 7 4 4 8 7 4 4 3 4 7 5 2 5 3 1 3 9 14 9 8 6 4 5 5 4 3 2 3 5 3 0 1 1 2 3 3 2 3 5 4 5 7 4 2 4 2 2 3 5 3 4 3 3 6 7 8 8 10 13 16 17 19 18 16 15 14 13
8 3 8 11 10 9 7 7 8 4 2 2 2 4 2 2 5 2 5 6 9 11 9 9 10 8 5 5 5 6 8 6 4 4 4 4 3 2 4 12 14 10 10 12 8 5 4 2 3 5 5 5 4 4 3 1 2 4 6 7 5 4 5 5 4 3 2 1 2 2 5 3 3 6 5 4 6 7 8 12 16 18 19 18 16 15 14 13
5 3 5 7 7 11 12 14 14 8 4 2 1 3 4 3 4 6 8 7 10 10 9 11 12 8 5 5 6 6 7 6 7 5 4 5 3 3 8 12 12 10 11 9 5 5 5 2 1 4 4 4 5 3 2 2 2 3 6 7 6 5 5 7 5 1 3 4 2 4 1 6 3 7 6 2 2 5 5 9 15 19 19 18 17 17 16 16
6 2 6 7 3 3 6 10 12 8 7 6 3 4 8 7 6 7 5 4 11 12 6 7 13 12 9 6 5 4 6 5 7 6 5 6 4 4 7 7 8 10 8 5 4 4 5 1 1 3 3 2 2 2 4 5 4 4 5 6 5 5 6 6 3 1 4 5 2 0 7 6 3 6 6 6 6 4 6 8 12 14 14 13 12 12 12 13
9 3 8 13 6 3 7 12 11 6 9 8 5 7 10 9 8 9 7 4 7 11 8 5 7 11 12 9 6 4 5 4 4 5 5 6 5 4 5 4 8 12 9 4 4 4 4 1 1 3 4 3 4 5 7 8 6 5 6 5 3 4 6 5 3 3 7 6 4 7 11 6 3 5 5 6 7 10 15 14 11 10 10 11 12 12 10 7
10 6 9 12 8 6 13 17 10 6 9 9 6 6 8 9 9 9 11 9 4 6 8 7 6 8 10 10 9 6 3 3 3 1 3 5 5 3 3 2 3 8 8 3 3 4 3 1 1 4 5 4 4 5 7 7 6 6 7 7 5 5 5 5 3 4 7 6 4 9 11 5 5 6 6 7 10 16 21 20 18 17 13 12 11 12 9 6
12 10 9 6 5 8 12 13 9 6 7 8 6 5 6 8 8 6 9 13 11 5 3 4 5 7 8 10 11 6 4 3 1 4 4 4 5 4 2 2 1 4 5 3 2 3 3 1 1 5 4 3 3 5 6 6 7 7 7 9 8 5 6 5 4 4 4 5 4 7 7 1 5 6 9 13 16 19 18 18 20 21 19 17 14 9 7 7
15 14 11 4 3 10 9 6 8 7 5 7 8 8 8 8 8 6 5 10 14 11 8 7 7 5 7 8 8 7 10 10 10 11 10 9 10 10 9 8 5 2 1 2 2 1 3 3 1 4 3 4 3 4 5 6 6 4 3 5 5 3 8 7 7 8 4 4 5 4 3 3 5 4 9 12 14 16 17 17 18 19 20 20 17 12 6 5
Wind_Direction
342 346 346 344 344 345 348 349 349 345 342 336 327 319 306 302 308 309 308 303 299 294 290 289 286 288 284 283 285 285 285 279 277 273 275 288 251 227 214 195 192 187 202 226 228 221 199 193 181 168 179 211 251 262 257 264 254 237 182 174 232 231 225 221 198 137 298 307 311 313 322 69 42 36 62 95 114 97 87 91 108 131 147 155 154 153 156 155
336 344 346 347 349 351 358 360 3 360 355 349 343 335 318 306 306 311 312 307 301 292 289 289 284 284 283 285 288 291 291 289 286 279 281 313 264 234 218 205 202 192 196 217 215 212 198 179 162 166 200 228 227 242 248 257 230 198 153 196 231 217 239 252 228 301 291 292 306 313 328 12 33 343 26 86 120 102 87 84 105 114 125 140 148 152 154 156
326 338 345 349 351 355 360 3 11 8 3 359 353 348 337 322 311 310 312 310 304 294 288 285 282 282 284 288 292 297 301 301 293 283 15 37 356 258 228 225 218 202 199 210 204 205 205 183 162 202 250 244 230 236 239 241 231 203 189 227 248 223 250 270 262 270 271 283 301 321 343 3 358 343 356 134 132 113 121 129 114 114 127 140 148 152 153 155
313 325 338 346 350 350 352 1 8 7 8 4 359 355 350 342 326 312 307 310 307 297 289 284 283 282 286 291 294 300 312 315 291 192 95 25 23 24 221 220 218 198 196 210 207 205 211 201 198 267 275 252 238 238 233 223 234 208 185 209 243 230 249 266 262 264 272 281 280 286 346 355 339 341 342 147 121 21 175 159 147 140 145 150 153 155 155 157
303 308 320 333 341 340 340 351 355 360 4 4 4 358 352 350 340 323 309 308 307 301 296 291 285 283 289 293 295 303 322 351 136 157 187 326 1 4 49 199 201 182 202 217 213 206 209 213 227 267 269 249 238 238 237 224 228 239 232 236 242 240 246 261 261 264 271 278 278 283 343 342 329 335 333 315 165 213 198 172 164 157 157 160 160 158 157 160
294 295 300 312 325 328 327 335 343 350 355 359 3 358 353 347 341 332 315 310 308 306 304 293 285 285 288 290 296 301 295 227 312 266 228 268 319 337 314 201 184 180 209 210 208 205 208 217 233 251 239 234 223 210 235 232 224 240 265 255 251 248 241 257 260 262 270 274 275 283 306 336 340 333 336 328 258 194 189 175 167 163 163 164 161 158 158 160
288 287 289 296 303 311 315 320 330 339 346 352 358 358 354 347 347 341 322 316 311 310 305 290 286 287 292 293 296 295 275 273 313 304 246 266 296 313 279 216 182 185 203 201 200 196 205 218 226 240 232 238 230 214 243 244 219 219 256 261 255 250 243 254 256 255 267 274 272 270 277 300 309 315 346 1 172 166 174 168 159 156 157 157 154 154 158 161
290 284 283 285 288 294 301 306 315 327 336 344 354 357 355 352 351 347 338 329 319 313 300 291 291 289 295 293 298 300 283 285 330 313 288 307 303 300 268 217 188 193 197 192 189 186 203 221 232 247 224 226 235 234 257 268 236 213 240 254 255 253 248 253 255 254 267 280 279 264 246 252 250 252 68 130 136 145 157 155 151 148 148 150 149 153 160 164
297 288 283 280 280 284 288 293 302 313 325 336 348 352 355 354 348 348 345 338 332 319 303 299 297 293 283 274 300 312 282 277 322 320 315 323 312 294 251 217 195 195 190 183 185 190 208 220 234 246 250 259 257 257 266 275 254 223 234 249 254 254 251 253 257 260 273 288 282 256 233 258 258 253 93 137 135 139 146 146 148 146 145 148 152 159 165 168
307 297 289 281 277 279 281 285 289 298 312 325 339 346 352 350 342 344 344 342 338 323 312 306 303 296 273 268 281 298 278 290 316 314 315 324 312 272 230 210 197 190 181 180 185 195 208 217 251 279 289 283 269 271 264 220 255 277 269 264 258 251 248 248 256 270 288 299 281 240 235 259 249 190 111 148 138 140 141 141 147 145 146 152 157 164 168 170
318 306 297 289 280 276 277 280 283 286 297 312 328 336 342 343 340 338 339 342 338 331 323 313 311 295 278 280 246 220 292 311 318 299 310 333 320 232 206 193 188 182 176 180 188 201 223 257 293 298 295 284 287 303 288 267 303 303 293 279 269 265 258 249 253 277 289 296 278 249 255 266 260 144 156 158 146 145 142 141 147 147 150 158 162 167 170 172
331 316 306 301 291 281 275 276 279 280 286 298 314 324 329 332 335 335 332 334 335 336 327 320 317 296 293 283 255 243 301 298 302 289 308 341 333 172 179 181 177 175 175 185 200 225 266 291 297 275 259 274 320 328 316 312 314 303 299 287 287 329 313 272 267 275 266 261 282 304 323 291 299 167 155 154 151 146 143 143 148 152 156 163 167 171 172 172
341 329 318 311 304 294 281 274 274 276 280 288 301 312 316 318 326 330 327 324 325 331 328 323 316 306 302 277 251 224 278 279 289 272 295 350 141 146 154 164 163 172 183 217 255 290 294 294 297 270 252 269 317 305 305 309 309 300 310 336 307 353 317 262 247 264 262 256 262 280 333 274 289 162 154 154 154 146 142 147 151 155 160 165 170 173 171 169
349 340 328 318 313 306 292 279 273 272 276 280 291 300 303 307 313 320 322 320 316 321 329 326 318 313 296 268 242 213 236 249 263 241 242 331 157 147 153 166 180 199 222 279 295 303 296 293 300 285 254 256 287 303 310 314 315 306 324 360 357 344 286 262 214 243 263 261 237 164 234 258 273 150 157 158 156 148 145 152 156 159 162 166 171 173 173 174
356 346 337 327 319 314 305 291 279 272 272 275 283 289 292 298 304 312 316 316 312 310 318 323 322 315 296 276 247 221 219 223 241 229 234 278 184 159 156 162 228 256 263 284 292 291 289 293 297 294 266 268 296 325 331 331 332 350 342 328 334 227 274 292 258 204 220 253 196 162 240 266 177 161 165 162 157 151 148 157 162 163 163 164 169 172 176 179
2 353 344 333 326 321 312 303 293 282 274 271 273 277 282 291 299 306 308 310 309 303 302 300 308 315 300 281 247 222 216 223 235 221 240 263 201 167 152 157 227 262 250 255 261 269 279 293 290 280 292 286 333 46 13 354 336 346 48 267 282 260 291 308 289 214 206 228 180 179 222 288 190 175 170 163 159 151 148 163 168 165 163 163 168 170 171 174
5 359 349 339 332 326 320 314 305 293 280 269 267 273 282 291 299 301 300 301 298 293 288 271 284 300 273 258 262 247 230 228 227 217 238 249 202 188 195 208 219 213 226 235 248 268 280 289 267 242 288 312 81 81 37 344 305 317 352 270 257 239 259 287 289 253 200 199 207 201 207 258 273 173 168 163 161 154 154 168 168 163 161 161 166 169 169 171
6 2 355 344 337 332 325 318 310 299 286 276 276 285 293 298 301 296 289 284 282 285 282 245 236 306 263 241 265 284 247 225 218 212 219 220 207 228 238 231 226 204 234 254 251 254 263 275 125 91 336 5 48 91 112 240 214 250 272 280 278 257 243 247 270 268 173 188 206 189 205 250 280 153 167 170 168 163 161 165 162 158 158 160 166 170 172 174
2 3 359 348 339 335 329 321 316 302 293 297 303 306 305 307 307 300 281 262 249 251 284 232 201 243 274 252 272 304 279 206 194 199 202 205 210 234 248 240 240 221 220 257 252 234 220 267 32 63 288 283 237 157 191 225 210 231 235 196 237 276 272 258 273 259 151 164 194 170 188 246 221 165 179 181 173 164 156 154 154 158 158 161 167 171 174 176
355 359 359 352 340 334 331 322 311 302 304 310 313 313 313 318 323 322 290 267 262 269 279 265 248 258 271 274 280 300 289 207 199 203 201 203 206 220 233 233 235 223 192 162 225 241 182 193 255 220 223 226 232 210 209 237 233 230 193 191 250 295 306 301 309 305 130 125 199 160 132 105 246 179 151 166 164 156 152 151 155 160 161 165 170 174 176 178
349 352 355 355 345 331 329 315 296 291 301 307 314 313 305 307 329 329 314 291 284 282 275 274 270 267 271 275 274 287 289 231 210 209 198 200 203 213 219 212 213 223 229 195 199 282 148 189 239 228 220 216 230 226 213 235 242 218 92 347 308 9 299 290 308 329 63 102 342 10 117 144 231 159 125 139 156 168 164 158 163 167 168 171 174 175 177 179
343 344 349 352 349 337 321 302 290 286 300 307 305 305 306 320 338 332 322 297 291 291 279 277 272 264 268 270 263 273 283 251 212 204 191 197 198 198 198 177 177 223 254 180 165 344 117 229 245 235 224 218 252 253 217 226 233 354 49 56 309 303 296 295 309 336 28 95 213 246 125 195 247 240 142 154 171 187 175 168 170 170 171 175 176 176 176 176
336 339 340 343 347 339 315 294 288 285 295 292 285 306 334 333 328 329 317 291 292 293 279 267 259 257 261 259 253 257 259 243 218 202 190 196 199 200 200 175 188 225 246 161 177 203 212 237 243 236 207 173 249 248 171 42 31 311 309 105 277 277 324 304 312 336 3 50 156 137 80 278 278 333 122 168 174 184 183 175 172 172 176 179 180 179 176 175
329 333 332 334 340 336 323 293 278 281 288 281 300 346 359 333 313 318 304 283 288 293 283 262 250 250 247 241 240 244 239 231 227 206 190 194 195 197 209 196 179 234 241 202 178 196 239 251 259 257 198 172 203 234 132 68 5 287 233 180 218 240 218 252 286 335 351 352 34 75 29 325 339 17 334 198 172 177 184 177 173 179 182 181 182 181 178 176
323 325 326 328 330 331 329 299 271 283 286 279 336 1 18 1 330 326 309 298 282 288 293 263 231 234 232 231 240 243 236 224 222 209 193 196 195 190 207 200 182 231 239 223 190 215 251 257 264 271 203 179 177 209 180 134 66 310 259 205 202 198 218 263 311 18 30 349 332 72 53 299 329 5 289 290 162 177 183 180 181 184 184 181 182 182 179 176
317 318 320 322 322 324 324 309 276 283 278 282 347 346 9 15 355 332 319 7 311 275 283 216 197 217 223 228 237 233 232 220 219 213 199 201 204 195 186 197 196 217 218 216 216 220 257 249 230 189 176 164 156 193 209 145 116 300 250 199 176 153 158 193 21 57 79 290 288 78 121 255 321 325 281 264 167 182 187 194 190 180 182 185 184 182 179 176
312 312 314 315 317 316 315 311 282 278 279 295 327 323 334 3 352 321 329 29 315 248 178 179 183 201 209 214 216 203 193 228 211 209 206 205 205 198 198 220 209 221 199 98 347 261 280 252 191 148 133 127 131 201 221 144 119 230 251 190 147 124 125 124 93 81 225 242 319 16 101 147 308 283 278 202 148 180 200 214 207 186 187 187 184 184 181 178
307 307 306 307 310 308 306 305 289 287 302 301 303 303 333 1 343 314 60 57 287 215 116 184 188 199 202 203 199 195 218 234 170 207 213 209 200 190 203 225 186 203 206 114 285 266 273 224 187 155 117 118 172 216 202 139 135 237 240 185 175 155 146 135 104 75 346 40 324 324 53 83 285 276 300 30 122 196 214 204 195 192 192 186 184 186 185 182
304 302 300 299 301 297 293 296 292 313 338 306 292 318 341 356 338 14 92 79 287 326 90 184 180 207 208 193 194 204 225 228 142 214 209 200 195 188 209 227 196 200 219 148 196 252 266 237 208 149 127 184 216 224 177 141 206 245 189 103 357 71 99 98 101 93 40 60 256 277 338 100 271 291 315 355 49 224 221 203 194 190 189 187 186 186 183 181
303 299 296 292 292 290 285 281 260 248 338 319 280 341 6 32 60 62 93 249 266 294 152 173 181 204 193 173 197 215 226 220 167 184 189 184 189 194 209 220 200 165 272 69 177 248 283 262 226 150 167 194 193 216 184 168 205 217 85 49 20 15 13 41 75 86 66 26 254 254 195 113 281 292 271 284 287 232 192 122 219 184 178 181 182 179 176 178
304 300 292 286 285 283 279 262 190 191 344 336 300 356 39 49 73 99 206 258 285 285 39 168 237 202 170 163 190 216 232 246 159 141 178 181 181 199 219 217 207 62 355 351 310 292 327 301 235 212 206 175 132 241 259 210 162 99 78 63 47 353 1 18 5 44 88 253 258 260 93 101 126 274 265 285 292 261 159 124 140 153 155 162 167 170 173 178
307 300 288 280 276 271 265 243 196 248 302 315 313 15 65 45 38 186 232 323 329 239 357 300 256 229 189 187 191 199 207 240 180 149 183 184 158 195 205 197 190 62 333 288 301 324 334 273 264 286 225 166 113 14 324 338 31 84 93 77 75 360 12 13 324 10 177 247 256 267 65 88 224 244 257 293 313 307 136 128 136 134 131 137 150 163 171 177
309 301 286 272 266 263 257 245 241 257 272 276 296 63 83 85 220 226 239 291 255 229 334 335 296 264 211 209 224 203 186 216 206 168 187 172 146 203 227 212 170 125 195 220 238 341 326 305 310 338 283 172 122 112 254 291 21 114 155 117 110 105 73 304 275 311 259 254 260 286 79 56 276 265 267 299 350 9 63 103 115 118 118 124 140 154 164 174
309 303 287 268 258 256 253 248 246 246 234 204 143 82 93 124 240 236 235 253 268 299 332 334 295 293 318 298 251 203 185 223 203 167 175 157 134 205 250 249 179 133 134 180 217 175 110 320 285 205 256 190 141 159 178 170 135 183 171 130 139 147 141 199 211 190 226 253 291 331 62 173 214 237 279 326 57 70 77 87 94 102 111 119 128 137 147 158
309 303 289 272 256 250 248 243 235 222 196 173 111 82 140 201 243 235 234 245 276 308 316 310 285 285 323 309 267 209 178 217 220 173 164 160 169 196 206 226 203 146 117 154 228 186 143 250 253 250 237 172 159 189 159 112 61 266 123 96 159 183 153 160 172 174 175 128 310 315 237 212 196 235 281 20 83 89 91 92 87 87 98 105 107 112 123 132
310 302 290 274 258 245 239 234 220 201 187 154 99 130 198 212 226 210 232 240 270 331 330 322 295 204 211 301 296 264 175 182 219 205 203 167 192 215 209 209 196 163 143 156 211 181 128 250 276 319 273 192 192 195 161 129 150 276 55 114 224 178 130 119 193 191 92 92 277 267 218 291 330 295 323 24 90 102 105 110 105 102 100 98 100 104 110 119
312 308 295 274 257 239 223 218 200 188 181 140 113 209 214 220 226 227 273 304 326 335 338 324 298 207 169 266 310 322 330 234 201 186 267 317 304 286 286 256 221 182 169 158 173 180 138 257 292 2 51 294 313 339 152 141 131 121 170 203 178 71 84 106 126 3 54 111 270 284 188 299 26 262 331 6 50 73 78 118 120 123 122 115 116 118 117 121
321 317 303 279 256 230 207 198 186 178 167 122 141 226 224 230 234 248 290 306 320 323 319 286 264 240 130 136 302 327 314 268 204 176 206 244 241 284 317 289 283 183 163 145 117 187 120 91 296 339 43 310 339 37 38 342 56 119 173 176 99 86 38 66 120 128 113 170 282 307 227 73 124 228 315 357 79 82 38 50 94 125 131 128 130 129 128 129
325 317 312 337 296 205 187 177 176 170 149 106 197 230 245 253 263 272 282 288 290 288 278 245 237 249 132 161 202 256 245 221 202 191 198 202 234 276 322 324 342 27 125 120 119 198 104 108 272 300 339 328 356 42 33 333 343 24 50 26 48 136 160 161 148 147 144 160 244 309 13 342 234 236 305 298 156 128 99 69 56 68 108 124 129 128 128 130
331 314 314 19 28 181 171 164 169 162 141 176 193 220 267 273 280 281 281 279 265 253 254 231 214 283 267 189 172 211 247 232 204 140 103 245 255 295 328 350 328 298 69 78 88 103 63 93 220 290 332 26 41 24 37 358 334 348 349 344 30 78 111 119 111 100 121 137 172 131 61 282 253 226 256 243 191 143 123 118 107 99 105 117 122 123 124 125
353 316 314 19 34 170 164 155 161 150 135 214 203 224 265 271 281 285 284 281 271 254 248 234 216 218 212 225 219 197 230 252 214 114 92 286 111 141 13 10 329 283 66 56 42 63 73 124 165 299 346 47 221 259 1 5 258 228 257 238 139 116 102 103 28 315 92 127 163 146 151 268 261 227 234 204 172 152 124 120 120 120 124 125 123 125 124 122
3 301 1 26 37 178 171 145 124 175 160 206 231 233 250 264 270 278 284 288 278 248 239 242 261 238 201 215 242 204 209 235 201 131 127 150 178 221 345 7 1 16 82 73 325 150 121 105 96 319 255 224 242 241 45 24 24 116 86 14 57 101 110 120 179 263 35 79 143 111 105 263 261 261 254 210 155 142 129 125 124 123 128 129 127 126 123 122
345 296 329 21 55 173 164 105 358 270 235 233 236 241 248 254 266 275 284 293 282 244 205 22 338 328 356 1 33 45 14 330 164 109 142 154 179 227 265 320 353 34 66 85 303 335 57 80 67 324 294 302 306 324 43 34 40 58 18 7 29 24 76 136 168 174 122 95 106 89 86 258 280 309 276 122 101 105 115 123 127 123 124 128 129 126 120 124
338 313 340 21 85 169 150 96 200 221 264 263 256 261 257 251 255 262 274 311 318 316 86 45 3 2 351 360 54 65 33 33 29 37 115 158 163 202 225 239 211 58 37 183 190 48 45 90 85 55 4 345 348 355 4 10 26 41 313 351 32 25 22 38 71 77 86 194 144 120 171 243 273 331 84 90 81 78 80 103 122 125 124 128 131 130 128 132
352 330 351 20 69 138 97 102 199 221 267 281 290 274 267 260 254 247 237 29 26 31 36 19 19 27 16 8 45 51 43 67 46 8 11 26 123 186 206 183 121 96 93 129 143 122 105 125 107 108 126 145 319 296 316 333 341 336 323 350 21 40 45 49 38 61 85 243 103 117 185 245 288 18 70 87 93 94 93 107 121 126 129 135 137 138 143 146
15 360 342 3 41 51 28 10 14 8 291 318 287 270 308 288 272 317 60 47 40 51 48 22 22 39 26 17 51 35 23 49 59 28 21 7 23 68 87 94 96 93 93 96 100 102 87 73 104 123 149 172 189 216 238 304 1 329 323 343 2 22 53 81 83 81 147 133 32 190 179 134 20 12 43 90 119 123 128 132 135 138 142 149 150 150 153 153
40 47 357 344 2 11 3 359 7 2 320 1 65 299 348 350 321 19 53 50 37 51 57 30 26 36 9 10 69 36 358 33 49 29 7 355 350 20 44 70 83 85 91 84 72 93 84 43 101 117 134 175 182 215 289 17 39 343 337 349 3 17 43 74 78 128 156 99 349 285 107 93 17 344 3 19 121 128 138 144 146 148 153 158 159 159 161 164
42 44 14 12 355 336 349 334 326 334 356 16 48 8 9 25 26 20 25 49 41 38 51 41 32 35 20 19 82 45 352 36 41 7 351 355 350 4 18 32 36 38 57 51 24 87 106 107 194 119 95 99 96 40 25 50 55 38 24 2 3 42 70 86 91 178 133 120 198 228 69 74 326 331 356 352 355 54 97 128 146 150 152 152 147 144 148 161
35 32 1 16 23 279 325 328 312 346 24 16 29 32 24 32 43 32 14 20 34 26 41 69 41 38 35 32 71 69 15 43 35 348 353 355 341 357 17 10 2 8 25 42 19 50 96 151 207 102 75 29 26 41 50 52 45 40 31 5 18 87 100 101 86 79 90 98 146 111 83 67 334 316 325 336 0 51 74 86 101 112 131 143 139 132 121 123
32 24 348 1 12 345 357 1 358 35 29 12 22 34 30 34 39 39 34 39 44 16 37 72 58 45 46 42 58 71 50 87 127 274 338 348 346 11 35 27 343 352 7 32 5 17 68 173 228 86 67 344 351 49 57 59 66 59 25 1 13 56 65 64 40 42 73 77 87 90 80 49 344 335 348 15 43 59 61 61 62 68 88 112 124 137 139 128
42 33 359 344 4 6 12 14 16 39 28 6 10 22 31 35 32 43 46 43 52 53 39 91 83 51 38 37 43 38 359 3 311 273 281 289 296 299 311 338 357 345 351 10 6 20 72 104 354 70 74 303 324 50 48 55 68 57 22 355 351 23 58 58 26 24 103 130 102 73 76 30 310 347 35 50 57 61 56 50 55 60 70 79 84 107 155 183
42 40 28 41 44 14 14 21 27 40 26 349 357 21 34 30 29 56 61 27 34 55 68 87 99 72 41 34 21 350 332 328 318 313 316 306 293 287 283 286 298 303 318 43 32 16 99 103 76 86 91 286 305 54 58 52 45 14 332 317 319 50 79 64 24 12 37 121 119 102 130 209 279 2 61 61 58 63 59 52 54 60 66 70 69 70 87 181